Weather History for Hagerstown, MD

Change the Weather History Date:

Tuesday, September 18, 2012

  Actual Average Record
Temperature  
Mean Temperature 68 °F -  
Max Temperature 71 °F 73 °F 84 °F (1998)
Min Temperature 65 °F 54 °F 43 °F (2013)
Cooling Degree Days 3    
Month to date cooling degree days 113  
Year to date cooling degree days 1249  
Growing Degree Days 16 (Base 50)    
Moisture  
Dew Point 65 °F    
Average Humidity 92    
Maximum Humidity 100    
Minimum Humidity 84    
Precipitation  
Precipitation 1.94 in - - ()
Month to date precipitation 2.50  
Year to date precipitation 26.34  
Sea Level Pressure  
Sea Level Pressure 29.73 in    
Wind  
Wind Speed 12 mph (South)    
Max Wind Speed 26 mph    
Max Gust Speed 40 mph    
Visibility 7 miles    
Events Rain    
Averages and records for this station are not official NWS values.
T = Trace of Precipitation, MM = Missing Value Source: NWS Daily Summary

Daily Weather History Graph

Daily Weather History Graph

Search for Another Location

Airport:

Trip Planner

Search our weather history database for the weather conditions in past years. The results will help you decide how hot, cold, wet, or windy it might be!

Date:

Astronomy

Sep. 18, 2012 Rise Set
Actual Time 6:55 AM EDT 7:13 PM EDT
Civil Twilight 6:28 AM EDT 7:40 PM EDT
Nautical Twilight 5:56 AM EDT 8:12 PM EDT
Astronomical Twilight 5:24 AM EDT 8:44 PM EDT
Moon 9:52 AM EDT (9/18) 8:36 PM EDT (9/18)
Length of Visible Light 13h 12m
Length of Day
12h 18m
Waxing Crescent, 9% of the Moon is Illuminated
Sep 18
Waxing Crescent
Sep 22
First Quarter
Sep 29
Full
Oct 8
Last Quarter
Oct 15
New

Hourly Weather History & Observations

Time (EDT) Temp. Dew Point Humidity Pressure Visibility Wind Dir Wind Speed Gust Speed Precip Events Conditions
12:53 AM 66.0 °F 64.0 °F 93% 29.95 in 7.0 mi SSE 8.1 mph - 0.01 in Rain Light Rain
1:08 AM 66.2 °F 64.4 °F 94% 29.93 in 5.0 mi SSE 8.1 mph - 0.00 in Rain Light Rain
1:24 AM 66.2 °F 64.4 °F 94% 29.92 in 3.0 mi SE 5.8 mph - 0.04 in Rain Heavy Rain
1:33 AM 64.4 °F 64.4 °F 100% 29.91 in 3.0 mi SE 6.9 mph - 0.06 in Rain Rain
1:41 AM 64.4 °F 64.4 °F 100% 29.91 in 4.0 mi SE 8.1 mph - 0.06 in Rain Light Rain
1:53 AM 64.9 °F 64.0 °F 97% 29.92 in 4.0 mi SE 9.2 mph - 0.06 in Rain Light Rain
2:53 AM 66.0 °F 64.0 °F 93% 29.88 in 4.0 mi SE 8.1 mph - 0.06 in Rain Rain
2:56 AM 66.2 °F 64.4 °F 94% 29.86 in 2.5 mi SE 8.1 mph - 0.05 in Rain Heavy Rain
3:02 AM 66.2 °F 64.4 °F 94% 29.86 in 1.8 mi SSE 8.1 mph - 0.10 in Rain Heavy Rain
3:10 AM 66.2 °F 64.4 °F 94% 29.85 in 2.5 mi SSE 5.8 mph - 0.15 in Rain Heavy Rain
3:25 AM 66.2 °F 64.4 °F 94% 29.84 in 6.0 mi South 6.9 mph - 0.18 in Rain Light Rain
3:40 AM 66.2 °F 64.4 °F 94% 29.83 in 6.0 mi SSE 6.9 mph - 0.19 in Rain Light Rain
3:53 AM 66.9 °F 64.9 °F 93% 29.84 in 4.0 mi SSE 10.4 mph - 0.22 in Rain Rain
4:53 AM 66.9 °F 66.0 °F 97% 29.81 in 8.0 mi SSE 11.5 mph - 0.08 in Rain Light Rain
5:09 AM 68.0 °F 66.2 °F 94% 29.79 in 7.0 mi SSE 9.2 mph - 0.01 in Rain Light Rain
5:23 AM 68.0 °F 66.2 °F 94% 29.78 in 8.0 mi SSE 15.0 mph - 0.02 in Rain Light Rain
5:53 AM 68.0 °F 66.0 °F 93% 29.77 in 9.0 mi SSE 11.5 mph - 0.05 in Rain Light Rain
6:34 AM 69.8 °F 66.2 °F 88% 29.74 in 10.0 mi SSE 16.1 mph - 0.01 in   Overcast
6:41 AM 69.8 °F 66.2 °F 88% 29.73 in 10.0 mi SSE 16.1 mph 24.2 mph 0.01 in Rain Light Rain
6:49 AM 69.8 °F 66.2 °F 88% 29.73 in 10.0 mi SSE 13.8 mph 21.9 mph 0.01 in Rain Light Rain
6:53 AM 69.1 °F 66.0 °F 90% 29.74 in 10.0 mi SSE 17.3 mph 25.3 mph 0.01 in Rain Light Rain
7:01 AM 69.8 °F 66.2 °F 88% 29.72 in 10.0 mi SSE 18.4 mph - 0.00 in Rain Light Rain
7:07 AM 69.8 °F 66.2 °F 88% 29.72 in 2.0 mi SSE 15.0 mph 24.2 mph 0.01 in Rain Light Rain
7:18 AM 69.8 °F 66.2 °F 88% 29.71 in 9.0 mi SSE 15.0 mph 24.2 mph 0.02 in Rain Light Rain
7:32 AM 69.8 °F 66.2 °F 88% 29.71 in 10.0 mi South 18.4 mph 24.2 mph 0.02 in   Overcast
8:53 AM 70.0 °F 66.9 °F 90% 29.67 in 2.0 mi SSE 17.3 mph 25.3 mph 0.13 in Rain Rain
9:00 AM 69.8 °F 66.2 °F 88% 29.65 in 3.0 mi SSE 13.8 mph 25.3 mph 0.01 in Rain Rain
9:16 AM 69.8 °F 66.2 °F 88% 29.64 in 3.0 mi SSE 21.9 mph 29.9 mph 0.08 in Rain Rain
9:53 AM 70.0 °F 68.0 °F 93% 29.63 in 1.0 mi SSE 19.6 mph 32.2 mph 0.23 in Rain Heavy Rain
10:53 AM 70.0 °F 68.0 °F 93% 29.61 in 1.0 mi South 15.0 mph 27.6 mph 0.25 in Rain Heavy Rain
10:59 AM 69.8 °F 68.0 °F 94% 29.60 in 0.8 mi SSW 15.0 mph 23.0 mph 0.15 in Rain Heavy Rain
11:14 AM 69.8 °F 68.0 °F 94% 29.61 in 1.0 mi SSW 15.0 mph 24.2 mph 0.41 in Rain Heavy Rain
11:22 AM 69.8 °F 68.0 °F 94% 29.62 in 2.0 mi SW 12.7 mph 23.0 mph 0.44 in Rain Rain
11:31 AM 69.8 °F 68.0 °F 94% 29.61 in 3.0 mi SSW 11.5 mph 19.6 mph 0.48 in Rain Rain
11:45 AM 69.8 °F 68.0 °F 94% 29.61 in 5.0 mi South 16.1 mph 25.3 mph 0.52 in Rain Rain
11:53 AM 71.1 °F 66.9 °F 87% 29.63 in 9.0 mi South 16.1 mph 23.0 mph 0.52 in Rain Light Rain
11:59 AM 71.6 °F 66.2 °F 83% 29.62 in 10.0 mi SSW 15.0 mph 25.3 mph 0.00 in Rain Light Rain
12:43 PM 69.8 °F 66.2 °F 88% 29.62 in 8.0 mi SSW 10.4 mph 19.6 mph 0.08 in Rain Light Rain
12:53 PM 70.0 °F 66.9 °F 90% 29.63 in 7.0 mi South 11.5 mph - 0.09 in Rain Light Rain
1:42 PM 71.6 °F 68.0 °F 88% 29.59 in 10.0 mi WSW 8.1 mph - 0.00 in Rain Light Rain
1:50 PM 71.6 °F 68.0 °F 88% 29.60 in 10.0 mi WSW 5.8 mph - 0.00 in   Overcast
1:53 PM 71.1 °F 68.0 °F 90% 29.61 in 10.0 mi SW 6.9 mph - 0.00 in   Overcast
2:07 PM 69.8 °F 68.0 °F 94% 29.60 in 8.0 mi SW 9.2 mph - 0.01 in Rain Light Rain
2:15 PM 69.8 °F 68.0 °F 94% 29.62 in 5.0 mi SW 10.4 mph - 0.02 in Rain Light Rain
2:31 PM 69.8 °F 66.2 °F 88% 29.61 in 2.5 mi WSW 6.9 mph - 0.07 in Rain Rain
2:38 PM 69.8 °F 66.2 °F 88% 29.62 in 3.0 mi WSW 8.1 mph - 0.10 in Rain Rain
2:53 PM 69.1 °F 66.0 °F 90% 29.64 in 5.0 mi SW 5.8 mph - 0.14 in Rain Rain
3:53 PM 68.0 °F 64.9 °F 90% 29.66 in 10.0 mi SSW 5.8 mph - 0.02 in Rain Light Rain
4:53 PM 68.0 °F 64.9 °F 90% 29.64 in 10.0 mi South 4.6 mph - 0.04 in   Scattered Clouds
5:53 PM 68.0 °F 64.9 °F 90% 29.69 in 10.0 mi South 10.4 mph - 0.00 in Rain Light Rain
6:53 PM 66.9 °F 64.9 °F 93% 29.70 in 10.0 mi South 8.1 mph - 0.00 in   Overcast
7:21 PM 66.2 °F 64.4 °F 94% 29.68 in 10.0 mi South 5.8 mph - 0.01 in   Overcast
7:44 PM 68.0 °F 64.4 °F 88% 29.69 in 10.0 mi SW 5.8 mph - 0.01 in   Overcast
7:53 PM 66.9 °F 64.9 °F 93% 29.71 in 10.0 mi SSW 4.6 mph - 0.01 in   Overcast
8:53 PM 68.0 °F 66.0 °F 93% 29.75 in 10.0 mi SW 6.9 mph - N/A   Overcast
9:15 PM 66.2 °F 64.4 °F 94% 29.74 in 8.0 mi WNW 18.4 mph - 0.01 in Rain Light Rain
9:25 PM 64.4 °F 60.8 °F 88% 29.75 in 10.0 mi NW 23.0 mph 32.2 mph 0.01 in Rain Light Rain
9:32 PM 64.4 °F 59.0 °F 83% 29.76 in 10.0 mi NW 18.4 mph 32.2 mph 0.01 in Rain Light Rain
9:53 PM 64.0 °F 57.9 °F 80% 29.80 in 10.0 mi NW 16.1 mph - 0.01 in Rain Light Rain
10:53 PM 62.1 °F 52.0 °F 70% 29.85 in 10.0 mi WNW 13.8 mph - 0.00 in   Overcast
11:53 PM 61.0 °F 51.1 °F 70% 29.88 in 10.0 mi WNW 13.8 mph - 0.00 in   Overcast